This demonstration page uses our WeatherBlox Daily Observations layout. Learn more.

Left ArrowRight Arrow

53.62937, 11.41316

Hourly Observations for September 6, 2015

Temp ( °F °C ) Dew Point ( °F °C ) Humidity (%) Winds ( mph kmh ) Pressure ( in mb ) Visibility ( mi km ) Precip ( " mm )
6:20 am 06:20 Mostly Cloudy with Light Rain 52 11 48 9 88 88 WSW 16 26 29.74 1007 30 48 N/A
6:50 am 06:50 Mostly Cloudy with Light Rain 52 11 50 10 94 94 W 17 28 29.71 1006 30 48 N/A
7:20 am 07:20 Mostly Cloudy with Light Rain 52 11 50 10 94 94 WSW 17 28 29.74 1007 30 48 N/A
7:50 am 07:50 Mostly Cloudy 52 11 50 10 94 94 W 16 26 29.74 1007 30 48 N/A
8:20 am 08:20 Mostly Cloudy with Drizzle 54 12 50 10 88 88 W 16 26 29.74 1007 30 48 N/A
8:50 am 08:50 Mostly Cloudy 54 12 52 11 94 94 W 18 30 29.74 1007 30 48 N/A
9:20 am 09:20 Mostly Cloudy 55 13 50 10 82 82 W 16 26 29.74 1007 30 48 N/A
9:50 am 09:50 Mostly Cloudy 55 13 50 10 82 82 W 20 31 29.77 1008 30 48 N/A
10:18 am 10:18 Mostly Cloudy 57 14 50 10 77 77 W 18 30 29.77 1008 30 48 N/A
10:20 am 10:20 Mostly Cloudy 57 14 52 11 82 82 W 18 30 29.77 1008 30 48 N/A
10:50 am 10:50 Mostly Cloudy 59 15 50 10 72 72 W 18 30 29.80 1009 30 48 N/A
11:20 am 11:20 Mostly Cloudy 57 14 52 11 82 82 WNW 16 26 29.80 1009 30 48 N/A
11:33 am 11:33 Mostly Cloudy 59 15 52 11 77 77 WNW 17 28 29.83 1010 30 48 N/A
11:50 am 11:50 Mostly Cloudy 59 15 52 11 77 77 WNW 17 28 29.83 1010 30 48 N/A
11:54 am 11:54 Mostly Cloudy 59 15 52 11 77 77 WNW 16 26 29.83 1010 30 48 N/A
12:20 pm 12:20 Mostly Cloudy 61 16 52 11 72 72 WNW 17 28 29.83 1010 30 48 N/A
12:50 pm 12:50 Cloudy 59 15 52 11 77 77 WNW 12 19 29.85 1011 30 48 N/A
1:20 pm 13:20 Mostly Cloudy 57 14 52 11 82 82 WNW 13 20 29.85 1011 30 48 N/A
1:50 pm 13:50 Mostly Cloudy 61 16 52 11 72 72 NW 13 20 29.85 1011 30 48 N/A
2:20 pm 14:20 Mostly Cloudy 63 17 50 10 64 64 WNW 22 35 29.88 1012 30 48 N/A
2:50 pm 14:50 Mostly Cloudy 63 17 50 10 64 64 WNW 12 19 29.88 1012 30 48 N/A
3:20 pm 15:20 Mostly Cloudy 63 17 50 10 64 64 NW 13 20 29.91 1013 30 48 N/A
3:50 pm 15:50 Mostly Cloudy 63 17 50 10 64 64 NW 12 19 29.91 1013 30 48 N/A
4:12 pm 16:12 Mostly Cloudy 63 17 48 9 59 59 WNW 17 28 29.91 1013 30 48 N/A
4:20 pm 16:20 Mostly Cloudy 63 17 48 9 59 59 WNW 17 28 29.91 1013 30 48 N/A
4:35 pm 16:35 Partly Cloudy 63 17 50 10 64 64 NW 17 28 29.91 1013 30 48 N/A
4:50 pm 16:50 Partly Cloudy 63 17 48 9 59 59 NW 17 28 29.91 1013 30 48 N/A
5:20 pm 17:20 Partly Cloudy 63 17 48 9 59 59 NW 15 24 29.91 1013 30 48 N/A
5:50 pm 17:50 Partly Cloudy 64 18 46 8 52 52 NW 17 28 29.94 1014 30 48 N/A
6:20 pm 18:20 Mostly Cloudy 63 17 45 7 52 52 NW 15 24 29.94 1014 30 48 N/A
6:50 pm 18:50 Mostly Cloudy 61 16 50 10 68 68 WNW 12 19 29.94 1014 30 48 N/A

Powered by AerisWeather